Location: Normandy Village
(37.8755°N, 122.2655°W)
Time: 09:00:56
(UTC+00:00)

Atlas Centaur 2 - Pass Details

Date: 22 September 2019
Orbit: 459 x 1311 km, 30.4° (Epoch: 17 October)

Event Time Altitude Azimuth Distance (km) Brightness Sun altitude
Exits shadow 12:38:59 19° 227° (SW) 2,181 3.8 -16.0°
Maximum altitude 12:41:20 22° 200° (SSW) 2,085 3.9 -15.6°
Drops below altitude 10° 12:46:54 10° 153° (SSE) 3,068 5.3 -14.5°
Sets 12:50:39 0° 140° (SE) 4,143 6.2 -13.8°
